Погода в Дацине

Китай     46°37′55″N   124°56′48″E
темп.,
°C
ветер,
м/с
пор.,
м/с
влажн.,
%
обл.,
%
осадки,
мм/ч
давл.,
гПа
погр.,
м
18 мая, вт
вт1823:00+20юз617295 0.0 1000426
02:00+19ююз6172931 0.0 999389
05:00+17юз38365 0.0 999171
08:00+23юз5112394 0.0 999672
11:00+29юз810172 0.0 9971466
14:00+31юз811131 0.0 9953865
17:00+18с131858100 0.0 996437
20:00+16св5105951 0.0 1000476
19 мая, ср
ср1923:00+16сз237094 0.4 1001126
02:00+14сз4781100 0.9 1002187
05:00+14ссз3672100 0.0 1003169
08:00+19ссз344779 0.0 1004559
11:00+23ссз1228100 0.0 10041428
14:00+25юз33225 0.0 10022122
17:00+25ююз45235 0.0 10012128
20:00+22юв33370 0.0 99921
20 мая, чт
чт2023:00+20ю49455 0.0 998130
02:00+20юз81847100 0.1 999479
05:00+18юз3754100 0.2 1000172
08:00+21с344453 0.2 1002660
11:00+25с2237100 0.0 10031285
14:00+28сз113065 0.0 10021577
17:00+28зсз1130100 0.0 10011622
20:00+24св3339100 0.0 100228
21 мая, пт
пт2123:00+22в344699 0.0 100252
02:00+20ююв344829 0.0 100161
05:00+19ююз4842100 0.0 1002176
08:00+24юз233398 0.0 1001383
11:00+29ю4427100 0.0 10011052
14:00+30ююз5523100 0.0 10001823
17:00+30ююз552367 0.0 9991650
20:00+25ю482946 0.0 1000136
22 мая, сб
сб2223:00+22ююз4932100 0.0 1000152
02:00+20ю493846 0.0 1000146
05:00+19ю4945100 0.0 1001164
08:00+26ю7102977 0.0 1001518
11:00+31ю810188 0.0 9992123
14:00+33ю9101648 0.0 9972937
17:00+32ю81117100 0.0 9962635
20:00+27ююз4924100 0.0 997189